Weather History for KMRB - July, 2012

Change the Weather History Date:

Saturday, July 14, 2012

  Actual Average Record
Temperature  
Mean Temperature 75 °F 75 °F  
Max Temperature 83 °F 86 °F 103 °F (1954)
Min Temperature 67 °F 64 °F 49 °F (2009)
Degree Days  
Heating Degree Days 0 0  
Month to date heating degree days 0 0  
Since 1 June heating degree days 14 24  
Since 1 July heating degree days 0 0  
Cooling Degree Days 10 10  
Month to date cooling degree days 187 136  
Year to date cooling degree days 523 376  
Since 1 June cooling degree days 369 319  
Growing Degree Days 24 (Base 50)    
Moisture  
Dew Point 67 °F    
Average Humidity 80    
Maximum Humidity 93    
Minimum Humidity 67    
Precipitation  
Precipitation 0.10 in 0.11 in 1.50 in (2014)
Month to date precipitation 1.09 1.60  
Year to date precipitation 17.24 21.09  
Sea Level Pressure  
Sea Level Pressure 30.19 in    
Wind  
Wind Speed 2 mph (NNE)    
Max Wind Speed 7 mph    
Max Gust Speed 10 mph    
Visibility 8 miles    
Events Rain    
T = Trace of Precipitation, MM = Missing Value Source: NWS Daily Summary

Daily Weather History Graph

Daily Weather History Graph

Search for Another Location

Airport or City:

Trip Planner

Search our weather history database for the weather conditions in past years. The results will help you decide how hot, cold, wet, or windy it might be!

Date:

Astronomy

Jul. 14, 2012 Rise Set
Actual Time 5:57 AM EDT 8:38 PM EDT
Civil Twilight 5:25 AM EDT 9:09 PM EDT
Nautical Twilight 4:46 AM EDT 9:48 PM EDT
Astronomical Twilight 4:01 AM EDT 10:33 PM EDT
Moon 2:10 AM EDT (7/14) 5:01 PM EDT (7/14)
Length of Visible Light 15h 44m
Length of Day
14h 41m
Waning Crescent, 19% of the Moon is Illuminated
Jul 14
Waning Crescent
Jul 19
New
Jul 26
First Quarter
Aug 1
Full
Aug 9
Last Quarter

Hourly Weather History & Observations

Time (EDT) Temp. Heat Index Dew Point Humidity Pressure Visibility Wind Dir Wind Speed Gust Speed Precip Events Conditions
12:53 AM 69.1 °F - 64.0 °F 84% 30.22 in 10.0 mi Calm Calm - 0.03 in Rain Light Rain
1:53 AM 68.0 °F - 64.9 °F 90% 30.21 in 10.0 mi Calm Calm - 0.00 in   Overcast
2:53 AM 68.0 °F - 64.9 °F 90% 30.20 in 4.0 mi NNW 4.6 mph - 0.03 in Rain Rain
3:53 AM 66.9 °F - 64.9 °F 93% 30.20 in 8.0 mi North 3.5 mph - 0.06 in Rain Light Rain
4:53 AM 66.2 °F - 64.4 °F 94% 30.21 in 7.0 mi NNE 4.6 mph - N/A   Overcast
5:16 AM 66.2 °F - 64.4 °F 94% 30.21 in 7.0 mi North 4.6 mph - 0.01 in Rain Light Rain
5:53 AM 66.2 °F - 64.4 °F 94% 30.21 in 7.0 mi North 4.6 mph - N/A   Overcast
6:53 AM 66.9 °F - 64.9 °F 93% 30.21 in 4.0 mi North 4.6 mph - N/A   Overcast
7:53 AM 68.0 °F - 64.4 °F 88% 30.23 in 5.0 mi NNE 4.6 mph - N/A   Overcast
8:01 AM 68.0 °F - 64.4 °F 88% 30.23 in 6.0 mi NNE 3.5 mph - N/A   Overcast
8:16 AM 68.0 °F - 64.4 °F 88% 30.23 in 6.0 mi NNE 3.5 mph - N/A   Overcast
8:53 AM 69.1 °F - 64.9 °F 87% 30.22 in 6.0 mi North 3.5 mph - N/A   Overcast
9:38 AM 69.8 °F - 64.4 °F 83% 30.23 in 7.0 mi Calm Calm - N/A   Overcast
9:53 AM 70.0 °F - 64.9 °F 84% 30.22 in 7.0 mi Calm Calm - N/A   Overcast
10:53 AM 71.1 °F - 66.0 °F 84% 30.22 in 7.0 mi Calm Calm - N/A   Overcast
11:53 AM 73.0 °F - 66.0 °F 79% 30.23 in 8.0 mi Calm Calm - N/A   Overcast
12:03 PM 71.6 °F - 66.2 °F 83% 30.24 in 8.0 mi Variable 3.5 mph - N/A   Overcast
12:53 PM 73.9 °F - 66.0 °F 76% 30.22 in 8.0 mi Calm Calm - 0.00 in   Overcast
1:53 PM 75.0 °F - 66.9 °F 76% 30.20 in 9.0 mi Calm Calm - N/A   Overcast
2:53 PM 77.0 °F - 66.9 °F 71% 30.17 in 10.0 mi Calm Calm - N/A   Scattered Clouds
3:08 PM 77.0 °F - 68.0 °F 74% 30.18 in 10.0 mi Calm Calm - N/A   Mostly Cloudy
3:53 PM 80.1 °F 82.7 °F 68.0 °F 67% 30.15 in 10.0 mi Calm Calm - N/A   Mostly Cloudy
4:09 PM 80.6 °F 83.2 °F 68.0 °F 65% 30.16 in 10.0 mi Calm Calm - N/A   Scattered Clouds
4:53 PM 81.0 °F 84.1 °F 69.1 °F 67% 30.13 in 10.0 mi East 6.9 mph - N/A   Scattered Clouds
5:53 PM 81.0 °F 84.1 °F 69.1 °F 67% 30.14 in 10.0 mi East 4.6 mph - N/A   Mostly Cloudy
6:23 PM 82.4 °F 86.3 °F 69.8 °F 66% 30.15 in 10.0 mi ENE 3.5 mph - N/A   Mostly Cloudy
6:53 PM 80.1 °F 83.2 °F 70.0 °F 71% 30.13 in 10.0 mi Calm Calm - N/A   Mostly Cloudy
7:53 PM 79.0 °F - 71.1 °F 77% 30.13 in 10.0 mi Calm Calm - N/A   Clear
8:53 PM 77.0 °F - 71.1 °F 82% 30.14 in 10.0 mi Calm Calm - N/A   Overcast
9:25 PM 78.8 °F - 71.6 °F 78% 30.15 in 10.0 mi NNW 4.6 mph - N/A   Overcast
9:48 PM 78.8 °F - 69.8 °F 74% 30.15 in 10.0 mi NE 3.5 mph - N/A   Mostly Cloudy
9:53 PM 75.9 °F - 71.1 °F 85% 30.14 in 10.0 mi East 3.5 mph - N/A   Partly Cloudy
10:53 PM 75.9 °F - 71.1 °F 85% 30.15 in 10.0 mi Calm Calm - N/A   Clear
11:53 PM 73.9 °F - 71.1 °F 91% 30.14 in 10.0 mi Calm Calm - N/A   Mostly Cloudy